TimeEST,TemperatureF,Dew PointF,Humidity,Sea Level PressureIn,VisibilityMPH,Wind Direction,Wind SpeedMPH,Gust SpeedMPH,PrecipitationIn,Events,Conditions,WindDirDegrees,DateUTC
12:51 AM,50.0,39.0,66,30.07,10.0,NE,8.1,20.7,N/A,,Partly Cloudy,40,2012-11-06 05:51:00
1:51 AM,50.0,39.0,66,30.06,10.0,NNE,8.1,19.6,N/A,,Clear,30,2012-11-06 06:51:00
2:51 AM,50.0,39.9,68,30.05,10.0,Variable,6.9,-,N/A,,Clear,0,2012-11-06 07:51:00
3:51 AM,50.0,39.9,68,30.04,10.0,NE,9.2,-,N/A,,Clear,40,2012-11-06 08:51:00
4:51 AM,50.0,41.0,71,30.04,10.0,Variable,6.9,-,N/A,,Clear,0,2012-11-06 09:51:00
5:51 AM,51.1,43.0,74,30.05,10.0,NNE,8.1,-,N/A,,Partly Cloudy,30,2012-11-06 10:51:00
6:51 AM,52.0,44.1,74,30.03,10.0,NE,9.2,18.4,N/A,,Clear,40,2012-11-06 11:51:00
7:51 AM,54.0,45.0,72,30.02,10.0,NE,9.2,17.3,N/A,,Clear,50,2012-11-06 12:51:00
8:51 AM,55.0,46.0,72,30.03,10.0,NE,11.5,17.3,N/A,,Clear,40,2012-11-06 13:51:00
9:51 AM,55.0,46.0,72,30.02,10.0,NE,11.5,18.4,N/A,,Clear,40,2012-11-06 14:51:00
10:51 AM,55.9,46.9,72,29.99,10.0,NE,11.5,19.6,N/A,,Clear,40,2012-11-06 15:51:00
11:51 AM,55.9,46.9,72,29.97,10.0,NE,10.4,19.6,N/A,,Overcast,40,2012-11-06 16:51:00
12:51 PM,54.0,48.0,80,29.93,10.0,NNE,10.4,19.6,0.00,Rain,Light Rain,30,2012-11-06 17:51:00
1:51 PM,54.0,48.9,83,29.94,10.0,NNE,9.2,20.7,0.02,Rain,Light Rain,30,2012-11-06 18:51:00
2:51 PM,53.1,48.9,86,29.91,9.0,NNE,10.4,19.6,0.06,Rain,Light Rain,20,2012-11-06 19:51:00
3:51 PM,53.1,48.0,83,29.90,10.0,NNE,15.0,24.2,0.00,Rain,Light Rain,20,2012-11-06 20:51:00
4:51 PM,53.1,48.0,83,29.91,6.0,North,9.2,19.6,0.05,Rain,Rain,10,2012-11-06 21:51:00
5:51 PM,52.0,48.9,89,29.89,4.0,NE,10.4,16.1,0.21,Rain,Rain,40,2012-11-06 22:51:00
6:51 PM,53.1,50.0,89,29.86,7.0,NNE,10.4,18.4,0.16,Rain,Light Rain,30,2012-11-06 23:51:00
7:51 PM,51.1,48.9,92,29.84,7.0,NE,10.4,19.6,0.14,Rain,Light Rain,40,2012-11-07 00:51:00
8:51 PM,52.0,48.9,89,29.81,10.0,NNE,10.4,19.6,0.01,Rain,Light Rain,20,2012-11-07 01:51:00
9:51 PM,53.1,50.0,89,29.82,10.0,NE,5.8,-,0.01,Rain,Light Rain,40,2012-11-07 02:51:00
10:51 PM,53.1,50.0,89,29.76,10.0,NE,10.4,16.1,0.04,Rain,Light Rain,50,2012-11-07 03:51:00
11:51 PM,54.0,51.1,90,29.75,10.0,North,6.9,-,0.00,,Partly Cloudy,360,2012-11-07 04:51:00